Challenge JP Guerit

Le Jogging Des Poires - Pesche (5.00 km)

samedi 24 août 2019

Le classement original se trouve sur : http://www.challenge-guerit.be/
 
CHALLENGE JP GUERIT
LE JOGGING DES POIRES - PESCHE
DISTANCE 5.00 km
samedi 24 août 2019
 
place
finish
dos NOM Equipe Catég. Place
catégorie
temps temps/km Vitesse
1 665 DUBUC JUSTIN JTRR SCH 1 00:23:27 04:41 12.79
2 540 CRESSON JULIEN - ADH 1 00:23:52 04:46 12.57
3 623 BRISON SYLVAIN MJC ADH 2 00:24:04 04:49 12.47
4 536 DE PESTEL BLAISE VAULX ADH 3 00:24:51 04:58 12.07
5 504 PIETERS KILIAN JACO ADH 4 00:26:00 05:12 11.54
6 610 NEEFS GRÉGORY - ADH 5 00:26:25 05:17 11.36
7 618 TACK AMAURY LA THURE ADH 6 00:26:29 05:18 11.33
8 546 ROGGE FRANÇOIS JACO CAD G 1 00:27:02 05:24 11.10
9 614 ANTOINE FRANÇOIS - ADH 7 00:27:10 05:26 11.04
10 506 BAIVIER VALENTIN JACO CAD G 2 00:27:15 05:27 11.01
11 664 ROGGE STEPHANE FAIREBEL ADH 8 00:28:14 05:39 10.63
12 658 LECHAT JEAN - ADH 9 00:28:25 05:41 10.56
13 602 BELLENGER BRUNO JTRR ADH 10 00:28:36 05:43 10.49
14 525 DE PESTEL HERVÉ VAULX MH 1 00:28:54 05:47 10.38
15 539 THOMAS PAUL BARRIERE MH 2 00:29:26 05:53 10.19
16 628 TRIBOLET CELINE - ADF 1 00:29:45 05:57 10.08
17 535 DE PESTEL SYLVÈRE VAULX CAD G 3 00:30:25 06:05 9.86
18 647 MOREAU DENIS - ADH 11 00:30:29 06:06 9.84
19 643 GUILLAUME SÉBASTIEN JTRR-SHARKS TRI ADH 12 00:31:14 06:15 9.61
20 529 FAYT SACHA LA THURE CAD G 4 00:31:20 06:16 9.57
21 537 DE PESTEL SARAH VAULX ADF 2 00:31:30 06:18 9.52
22 616 LERNOUT MATTHIAS JACO x   00:31:33 06:19 9.51
23 714 DEMEULDRE CLARA JOG HERMETON CAD F 1 00:31:39 06:20 9.48
24 659 BLONDIAUX JASON - ADH 13 00:31:43 06:21 9.46
25 712 VAN GEEL EMILIE JOG HERMETON SCF 1 00:31:46 06:21 9.44
26 611 RATHMES THÉO JTRR x   00:31:54 06:23 9.40
27 613 MICHON MARVIN - ADH 14 00:31:55 06:23 9.40
28 649 FICHET LAURENT JACO ADH 15 00:32:13 06:27 9.31
29 709 DROMELET CLÉMENCE ACCO x   00:32:15 06:27 9.30
30 615 ANTOINE SIMON - ADH 16 00:32:26 06:29 9.25
31 633 DELGRANCHE AMÉLIE CARPENT-TEAM ADF 3 00:32:37 06:31 9.20
32 560 DESORBAY CHRISTINE JACO ADF 4 00:32:43 06:33 9.17
33 508 LINTHOUT MICHAËL WAL'COURSE SCH 2 00:32:50 06:34 9.14
34 554 RIFFLART MATHIEU JTRR ADH 17 00:32:58 06:36 9.10
35 676 SUBIRES ALEXIS - x   00:33:00 06:36 9.09
36 685 DELSAUX XAVIER - ADH 18 00:33:03 06:37 9.08
37 688 BELLOT GUILLAUME NISMES ADH 19 00:33:10 06:38 9.05
38 538 FOSTY FRANCETTE BARRIERE MF 1 00:33:24 06:41 8.98
39 673 DELAHAUT FLAVIE - CAD F 2 00:33:25 06:41 8.98
40 675 DELAHAUT THIERRY JACO ADH 20 00:33:27 06:41 8.97
41 646 THOMAS EDDY - ADH 21 00:33:51 06:46 8.86
42 701 RIVEZ NICOLAS STRATOS RUNING ADH 22 00:34:07 06:49 8.79
43 552 DEMOUSTIER CINTIA RAID DINGUE ADF 5 00:34:39 06:56 8.66
44 619 SAQUET LOUCA ACCO SCH 3 00:34:42 06:56 8.65
45 656 MARTIN NOA HARÇOUILLES CAD G 5 00:34:43 06:57 8.64
46 691 GUIOT ALEXANDRA STRATOS ADF 6 00:34:44 06:57 8.64
47 690 HUART QUENTIN - ADH 23 00:34:46 06:57 8.63
48 524 DARDENNE ANTOINE - CAD G 6 00:34:54 06:59 8.60
49 710 VAN GEEL SOPHIE JOG HERMETON CAD F 3 00:34:59 07:00 8.58
50 674 DELAHAUT FRÉDÉRIC PWERES ADH 24 00:35:01 07:00 8.57
51 624 KOCUREK PHILIPPE JACO MH 3 00:35:04 07:01 8.56
52 683 HANNEVART LAURENT - ADH 25 00:35:27 07:05 8.46
53 516 DETRE ABELINE RCABW ADF 7 00:35:29 07:06 8.45
54 622 DETRE PASCAL RCABW P MH 4 00:35:32 07:06 8.44
55 661 BIOT RENAUD - ADH 26 00:35:56 07:11 8.35
56 668 LINCLAU EVELYNE - ADF 8 00:36:03 07:13 8.32
57 630 POUCET BERNARD JTRR ADH 27 00:36:05 07:13 8.31
58 687 BASTIN IGNALE - ADH 28 00:36:06 07:13 8.31
59 601 MASSARD CHRISTELLE JTRR ADF 9 00:36:08 07:14 8.30
60 632 POUCET STEVE - ADH 29 00:36:10 07:14 8.29
61 707 DELABAERE BRUNO - ADH 30 00:36:26 07:17 8.23
62 657 MARTIN FANNY ROCROI SPORTS NATURE ADF 10 00:36:35 07:19 8.20
63 549 HANOTEAUX RAYMOND LA THURE MH 5 00:36:37 07:19 8.19
64 713 VAN GEEL JUSTINE JOG HERMETON ADF 11 00:36:40 07:20 8.18
65 609 TILQUIN SIMON - ADH 31 00:36:41 07:20 8.18
66 696 FORAIN BEN - MH 6 00:36:43 07:21 8.17
67 648 BAILLY PAULINE JACO x   00:36:59 07:24 8.11
68 542 DE PESTEL HÉLÈNE VAULX ADF 12 00:37:43 07:33 7.95
69 660 VINCART CHRISTIAN - MH 7 00:37:54 07:35 7.92
70 693 DARDENNE DORYAN JACO x   00:38:11 07:38 7.86
71 692 JEANMART NATHALIE - ADF 13 00:38:20 07:40 7.83
72 670 RECLOUX ANDRÉ - MH 8 00:38:26 07:41 7.81
73 512 GEORGE VALÉRIE JTRR ADF 14 00:38:29 07:42 7.80
74 621 LAMBERT MURIELLE ACCO ADF 15 00:38:31 07:42 7.79
75 629 NICOLAS ALEX ACCO CAD G 7 00:38:32 07:42 7.79
76 653 GAILLY LOU - x   00:38:34 07:43 7.78
77 682 HANNEVART ANTOINE - ADH 32 00:38:39 07:44 7.76
78 550 BIOT ALEX JTRR MH 9 00:38:43 07:45 7.75
79 678 SUBIRES JOAQUIM - ADH 33 00:38:48 07:46 7.73
80 684 LEBLANC DIMITRI - ADH 34 00:39:23 07:53 7.62
81 697 FRANÇOIS VINCENT - MH 10 00:39:29 07:54 7.60
82 708 DROMELET ERINE JTRR x   00:39:37 07:55 7.57
83 667 DOCCULA SILVANA - ADF 16 00:39:39 07:56 7.57
84 666 GILLES JULIE - ADF 17 00:39:41 07:56 7.56
85 686 CHARLIER ISABELLE - ADF 18 00:39:42 07:56 7.56
86 513 DARDENNE SÉBASTIEN - ADH 35 00:39:45 07:57 7.55
87 501 SEPTON LUCIE LA THURE MF 2 00:40:01 08:00 7.50
88 699 FRANÇOIS MAXIME - CAD G 8 00:40:04 08:01 7.49
89 679 CAUDRON EMMANUELLE - ADF 19 00:40:19 08:04 7.44
90 650 PAGE VALENTINE JACO x   00:40:34 08:07 7.40
91 651 PAGE BENJAMIN JACO ADH 36 00:40:35 08:07 7.39
92 652 COLOT HÉLÈNE COUVIRUN ADF 20 00:40:58 08:12 7.32
93 612 VEKEMANS JORDAN JV-99 ADH 37 00:41:06 08:13 7.30
94 627 GUIMIN LISE - CAD F 4 00:41:15 08:15 7.27
95 662 NICOLAS JONATHAN COUVIN RUN ADH 38 00:41:16 08:15 7.27
96 557 GOUTIERE MARIE SHARKS ADF 21 00:41:18 08:16 7.26
97 703 MEERTENS MORGANE LA THURE ADF 22 00:41:24 08:17 7.25
98 669 PARISELLE JACKY AC FRONTIERES MH 11 00:41:27 08:17 7.24
99 603 MAUDOUX LIONEL JACO ADH 39 00:41:43 08:21 7.19
100 639 ROCHETTE ARNAUD - ADH 40 00:41:43 08:21 7.19
101 635 CARPENTIER MAXIME CARPENT-TEAM ADH 41 00:41:48 08:22 7.18
102 645 COENE ELODIE - ADF 23 00:41:54 08:23 7.16
103 718 BASTIEN EMILIE - ADF 24 00:42:03 08:25 7.13
104 644 MEERTENS JOSIANE ACCO MF 3 00:42:07 08:25 7.12
105 640 ALBERTY ALIZEE - ADF 25 00:43:12 08:38 6.94
106 677 DELABYE CÉLINE - ADF 26 00:43:16 08:39 6.93
107 514 LAHR MARIELLE JTRR MF 4 00:43:24 08:41 6.91
108 637 MOTQUIN BÉRENGÈRE JACO-SHARKS TRI ADF 27 00:43:41 08:44 6.87
109 636 DEPRET ISALINE JACO x   00:43:42 08:44 6.86
110 715 VAN DEN BRIL LOU - x   00:43:43 08:45 6.86
111 716 DEGRANDE AURÉLIE - ADF 28 00:43:44 08:45 6.86
112 532 PAGE PAULINE JACO CAD F 5 00:44:28 08:54 6.75
113 606 BASTIN AMÉLIE LES POTOS ADF 29 00:44:29 08:54 6.74
114 654 BORE CYRIL - ADH 42 00:44:30 08:54 6.74
115 695 SCHEPENS FABIENNE - MF 5 00:45:24 09:05 6.61
116 681 DEPRY SANDRINE - ADF 30 00:45:24 09:05 6.61
117 605 ELOY JEAN-CLAUDE LA THURE MH 12 00:46:49 09:22 6.41
118 626 LEMPEREUR SABINE - ADF 31 00:47:33 09:31 6.31
119 625 BOLLE MELISSA - ADF 32 00:47:40 09:32 6.29
120 680 MATOT GENEVIÈVE - MF 6 00:47:44 09:33 6.28
121 604 BOULANGER MICHEL JTRR MH 13 00:48:28 09:42 6.19
122 672 GHIERCHE CINDY JCPMF ADF 33 00:48:36 09:43 6.17
123 671 NICOLAS SÉBASTIEN - ADH 43 00:48:38 09:44 6.17
124 509 DEMAIN PATRICK LA THURE ADH 44 00:49:01 09:48 6.12
125 607 BAIOLET NELL JACO x   00:49:14 09:51 6.09
126 642 GAUTHIER CÉLINE JTRR ADF 34 00:49:22 09:52 6.08
127 655 BOREL MÉLANIE - ADF 35 00:50:40 10:08 5.92
128 520 ROUSSEAUX FLORENCE LA THURE ADF 36 00:51:05 10:13 5.87
129 663 PESSLEUX VIRGINIE - ADF 37 00:51:05 10:13 5.87
130 531 GOBERT FRANÇOISE LA THURE MF 7 00:53:14 10:39 5.64
131 704 CALVI SANDRINE JCPMF ADF 38 00:53:37 10:43 5.60
132 641 DELOGE CAROLINE - ADF 39 00:56:33 11:19 5.31
133 638 KOCUREK FRANCIS JACO MH 14 00:57:24 11:29 5.23
134 502 FAYT PATRICIA JACO ADF 40 00:57:51 11:34 5.19
135 698 BARBIER SYLVIE LA THURE ADF 41 00:58:03 11:37 5.17
136 530 FAYT VINCENT LA THURE ADH 45 00:59:20 11:52 5.06
137 617 HERBAGE DELPHINE LA THURE ADF 42 01:00:00 12:00 5.00